Aeroporto :
LOGIN :

Iscrizione | Disclaimer

   EN    FR    IT 

 










Sommario :    VFR   VFR Marginale   IFR   IFR Intensivo   IFR Molto Intensivo
Visibilità : 
Base nubi : 
>= 8 km
>= 3000ft
5 / 8 km
1000 / 3000 ft
1500m / 5 km
500 / 1000 ft
800 / 1500m
200 / 500 ft
< 800m
< 200 ft
Simboli :   Temporali  Nebbia  Neve Forte  Precipitazioni Forti  Vento > 20 kt
SIGMETs :   Varie  Temporali  Ghiacco  Turbolenza  Onda orograficha  Ceneri Vulcaniche







- Altitudine del aeroporto : 1906 ft
- Codice IATA : INN


LOWI - Innsbruck

ULTIMO METAR :
  • 231850Z 07007KT 040V100 CAVOK 03/M02 Q1036 NOSIG

METARs OBSOLETI :
  • 231820Z 08006KT 050V110 CAVOK 03/M02 Q1035 NOSIG
  • 231750Z 07007KT CAVOK 04/M01 Q1035 NOSIG
  • 231720Z 07007KT CAVOK 04/M01 Q1034 NOSIG
  • 231650Z 06008KT CAVOK 05/M01 Q1034 NOSIG
  • 231620Z 09006KT CAVOK 06/M02 Q1034 NOSIG
  • 231550Z 09007KT CAVOK 07/M02 Q1034 NOSIG

TAF TAF LOWI
Valido dal 23 a 18 ore il 24 a 18 ore UTC


231715Z 2318/2418 08004KT CAVOK TX10/2414Z TNM04/2405Z
BECMG 2409/2411 09007KT
Nessun NOTAM noto per questo aeroporto.



MetMap, La meteo Aeronautica in un colpo d'occhio ! - Copyright ORBIFLY Dicembre 2007 - Disclaimer

ORBIFLY MET'MAP TEAM :

Programmazione e sviluppo : Alexandra Zaïnal
Concezione e sviluppo : Baudouin d'Aumeries
Co-Programmazione e sviluppo : Marc-Olivier Méhu
Supporto tecnico e logistico : Manuel Goepfert
Aiuto per la traduzione : Arnaldo La Scala

Contatto : metmap@orbifly.com




FONTI E CREDITI :

   NOAA